Palma De Mallorca, Spain

11:07 AM CET on February 06, 2016 (GMT +0100)
Palma De Mallorca

Weather History for LEPA - August, 2013

Change the Weather History Date:

Monday, August 5, 2013

  Actual Average Record
Temperature  
Mean Temperature 80 °F -  
Max Temperature 93 °F 85 °F 96 °F (2003)
Min Temperature 67 °F 65 °F 60 °F (2000)
Cooling Degree Days 15    
Growing Degree Days 30 (Base 50)    
Moisture  
Dew Point 69 °F    
Average Humidity 68    
Maximum Humidity 84    
Minimum Humidity 41    
Precipitation  
Precipitation 0.00 in 0.03 in - ()
Sea Level Pressure  
Sea Level Pressure 30.01 in    
Wind  
Wind Speed 4 mph ()    
Max Wind Speed 18 mph    
Max Gust Speed -    
Visibility 8.2 miles    
Events      
Averages and records for this station are not official NWS values.
T = Trace of Precipitation, MM = Missing Value Source: Averaged Metar Reports

Daily Weather History Graph

Daily Weather History Graph

Search for Another Location

Airport or City:

Trip Planner

Search our weather history database for the weather conditions in past years. The results will help you decide how hot, cold, wet, or windy it might be!

Date:

Astronomy

Aug. 05, 2013 Rise Set
Actual Time 6:52 AM CEST 8:57 PM CEST
Civil Twilight 6:22 AM CEST 9:26 PM CEST
Nautical Twilight 5:46 AM CEST 10:03 PM CEST
Astronomical Twilight 5:06 AM CEST 10:42 PM CEST
Moon 5:33 AM CEST (8/5) 7:48 PM CEST (8/5)
Length of Visible Light 15h 04m
Length of Day
14h 05m
Waning Crescent, 2% of the Moon is Illuminated
Aug 5
Waning Crescent
Aug 6
New
Aug 14
First Quarter
Aug 21
Full
Aug 28
Last Quarter

Hourly Weather History & Observations

Time (CEST) Temp. Heat Index Dew Point Humidity Pressure Visibility Wind Dir Wind Speed Gust Speed Precip Events Conditions
12:00 AM 77.0 °F - 68.0 °F 74% 30.06 in - Calm Calm - N/A   Clear
12:30 AM 75.2 °F - 68.0 °F 78% 30.06 in - Calm Calm - N/A   Clear
1:00 AM 75.2 °F - 68.0 °F 78% 30.06 in - Calm Calm - N/A   Clear
1:30 AM 75.2 °F - 66.2 °F 73% 30.06 in - Calm Calm - N/A   Clear
2:00 AM 73 °F - 65 °F 69% 30.06 in 12 mi Calm Calm - -  
2:00 AM 73.4 °F - 64.4 °F 73% 30.06 in - Calm Calm - N/A   Clear
2:30 AM 71.6 °F - 64.4 °F 78% 30.04 in - Calm Calm - N/A   Clear
3:00 AM 69.8 °F - 64.4 °F 83% 30.04 in - NE 1.2 mph - N/A   Clear
3:30 AM 69.8 °F - 64.4 °F 83% 30.04 in - Calm Calm - N/A   Clear
4:00 AM 68.0 °F - 62.6 °F 83% 30.04 in - Calm Calm - N/A   Clear
4:30 AM 68.0 °F - 62.6 °F 83% 30.04 in - Calm Calm - N/A   Clear
5:00 AM 68.0 °F - 60.8 °F 78% 30.01 in - Calm Calm - N/A   Clear
5:30 AM 68.0 °F - 60.8 °F 78% 30.01 in - Calm Calm - N/A   Clear
6:00 AM 68.0 °F - 59.0 °F 73% 30.01 in - Calm Calm - N/A   Clear
6:30 AM 68.0 °F - 59.0 °F 73% 30.01 in - NNE 2.3 mph - N/A   Clear
7:00 AM 68.0 °F - 59.0 °F 73% 30.01 in - NE 3.5 mph - N/A   Clear
7:30 AM 69.8 °F - 59.0 °F 68% 30.01 in - Variable 1.2 mph - N/A   Clear
8:00 AM 73 °F - 61 °F 58% 30.03 in 12 mi North 3.5 mph - -  
8:00 AM 73.4 °F - 62.6 °F 69% 30.01 in - NNE 4.6 mph - N/A   Clear
8:30 AM 78.8 °F - 66.2 °F 65% 30.04 in - NE 4.6 mph - N/A   Clear
9:00 AM 80.6 °F 83.9 °F 69.8 °F 70% 30.04 in - Variable 2.3 mph - N/A   Clear
9:30 AM 82.4 °F 86.3 °F 69.8 °F 66% 30.01 in - Variable 2.3 mph - N/A   Clear
10:00 AM 86.0 °F 89.4 °F 68.0 °F 55% 30.04 in - NE 1.2 mph - N/A   Clear
10:30 AM 87.8 °F 90.4 °F 66.2 °F 49% 30.04 in - NNE 3.5 mph - N/A   Clear
11:00 AM 89.6 °F 92.2 °F 66.2 °F 46% 30.04 in - WNW 2.3 mph - N/A   Clear
11:30 AM 91.4 °F 93.2 °F 64.4 °F 41% 30.04 in - South 1.2 mph - N/A   Clear
12:00 PM 91.4 °F 93.2 °F 64.4 °F 41% 30.04 in - SW 9.2 mph - N/A   Clear
12:30 PM 87.8 °F 92.6 °F 69.8 °F 55% 30.04 in - WSW 8.1 mph - N/A   Clear
1:00 PM 87.8 °F 93.8 °F 71.6 °F 58% 30.01 in - WSW 9.2 mph - N/A   Clear
1:30 PM 87.8 °F 95.6 °F 73.4 °F 62% 30.01 in - WSW 11.5 mph - N/A   Clear
2:00 PM 90 °F - 71 °F 44% 30.01 in 19 mi WSW 15.0 mph - -  
2:00 PM 89.6 °F 98.2 °F 73.4 °F 59% 30.01 in - WSW 13.8 mph - N/A   Clear
2:30 PM 89.6 °F 98.2 °F 73.4 °F 59% 30.01 in - WSW 12.7 mph - N/A   Clear
3:00 PM 89.6 °F 96.2 °F 71.6 °F 55% 30.01 in - SW 13.8 mph - N/A   Clear
3:30 PM 91.4 °F 94.0 °F 66.2 °F 43% 29.98 in - WSW 13.8 mph - N/A   Clear
4:00 PM 87.8 °F 93.8 °F 71.6 °F 58% 29.98 in - WSW 15.0 mph - N/A   Clear
4:30 PM 87.8 °F 95.6 °F 73.4 °F 62% 29.98 in 6.2 mi WSW 18.4 mph - N/A   Partly Cloudy
5:00 PM 87.8 °F 95.6 °F 73.4 °F 62% 29.98 in 6.2 mi WSW 15.0 mph - N/A   Partly Cloudy
5:30 PM 87.8 °F 95.6 °F 73.4 °F 62% 29.98 in 6.2 mi SW 12.7 mph - N/A   Partly Cloudy
6:00 PM 86.0 °F 93.4 °F 73.4 °F 66% 29.98 in 6.2 mi WSW 12.7 mph - N/A   Partly Cloudy
6:30 PM 86.0 °F 93.4 °F 73.4 °F 66% 29.98 in 6.2 mi SW 11.5 mph - N/A   Partly Cloudy
7:00 PM 84.2 °F 92.3 °F 75.2 °F 74% 29.98 in 6.2 mi WSW 12.7 mph - N/A   Partly Cloudy
7:30 PM 84.2 °F 92.3 °F 75.2 °F 74% 29.98 in 6.2 mi WSW 12.7 mph - N/A   Partly Cloudy
8:00 PM 83 °F - 74 °F 68% 30.00 in 19 mi SW 13.8 mph - -   Scattered Clouds
8:00 PM 82.4 °F 89.5 °F 75.2 °F 79% 30.01 in 6.2 mi SW 12.7 mph - N/A   Partly Cloudy
8:30 PM 82.4 °F 89.5 °F 75.2 °F 79% 30.01 in 6.2 mi SW 8.1 mph - N/A   Partly Cloudy
9:00 PM 80.6 °F 86.2 °F 75.2 °F 84% 29.98 in 6.2 mi SW 3.5 mph - N/A   Partly Cloudy
9:30 PM 80.6 °F 86.2 °F 75.2 °F 84% 29.98 in 6.2 mi WSW 2.3 mph - N/A   Partly Cloudy
10:00 PM 80.6 °F 86.2 °F 75.2 °F 84% 29.98 in 6.2 mi Calm Calm - N/A   Partly Cloudy
10:30 PM 80.6 °F 85.4 °F 73.4 °F 79% 29.98 in 6.2 mi Variable 2.3 mph - N/A   Partly Cloudy
11:00 PM 78.8 °F - 73.4 °F 83% 29.98 in 6.2 mi ENE 3.5 mph - N/A   Partly Cloudy
11:30 PM 78.8 °F - 73.4 °F 83% 29.98 in 6.2 mi Calm Calm - N/A   Partly Cloudy